Litchfield, MN

4:06 PM CDT on May 23, 2018 (GMT -0500)
Litchfield Municipal

Weather History for KLJF - September, 2013

Change the Weather History Date:

Saturday, September 21, 2013

  Actual Average Record
Temperature  
Mean Temperature 55 °F -  
Max Temperature 64 °F 66 °F 86 °F (2005)
Min Temperature 46 °F 45 °F 33 °F (1982)
Degree Days  
Heating Degree Days 10    
Growing Degree Days 5 (Base 50)    
Moisture  
Dew Point 47 °F    
Average Humidity 78    
Maximum Humidity 100    
Minimum Humidity 49    
Precipitation  
Precipitation 0.00 in - - ()
Sea Level Pressure  
Sea Level Pressure 29.97 in    
Wind  
Wind Speed 4 mph (NW)    
Max Wind Speed 9 mph    
Max Gust Speed -    
Visibility 10 miles    
Events      
Averages and records for this station are not official NWS values.
T = Trace of Precipitation, MM = Missing Value Source: NWS Daily Summary

Daily Weather History Graph

Daily Weather History Graph

Search for Another Location

Airport or City:

Astronomy

Sep. 21, 2013 Rise Set
Actual Time 7:04 AM CDT 7:16 PM CDT
Civil Twilight 6:34 AM CDT 7:46 PM CDT
Nautical Twilight 6:00 AM CDT 8:20 PM CDT
Astronomical Twilight 5:24 AM CDT 8:56 PM CDT
Moon 8:19 PM CDT (9/21) 9:31 AM CDT (9/21)
Length of Visible Light 13h 11m
Length of Day
12h 12m
Waning Gibbous, 94% of the Moon is Illuminated
Sep 21
Waning Gibbous
Sep 26
Last Quarter
Oct 4
New
Oct 11
First Quarter
Oct 18
Full

Hourly Weather History & Observations

Time (CDT) Temp. Windchill Dew Point Humidity Pressure Visibility Wind Dir Wind Speed Gust Speed Precip Events Conditions
12:13 AM 51.8 °F - 48.2 °F 88% 29.96 in 10.0 mi WNW 5.8 mph - N/A   Scattered Clouds
12:32 AM 51.8 °F - 48.2 °F 88% 29.96 in 10.0 mi NW 4.6 mph - N/A   Scattered Clouds
12:53 AM 51.8 °F - 48.2 °F 88% 29.96 in 10.0 mi Calm Calm - N/A   Scattered Clouds
1:13 AM 48.2 °F - 48.2 °F 100% 29.96 in 10.0 mi Calm Calm - N/A   Unknown
1:32 AM 48.2 °F - 48.2 °F 100% 29.97 in 10.0 mi WSW 4.6 mph - N/A   Scattered Clouds
1:53 AM 48.2 °F - 48.2 °F 100% 29.97 in 10.0 mi West 3.5 mph - N/A   Scattered Clouds
2:13 AM 50.0 °F - 48.2 °F 94% 29.97 in 10.0 mi West 4.6 mph - N/A   Scattered Clouds
2:32 AM 48.2 °F - 48.2 °F 100% 29.97 in 10.0 mi Calm Calm - N/A   Scattered Clouds
2:53 AM 51.8 °F - 50.0 °F 94% 29.97 in 10.0 mi WNW 6.9 mph - N/A   Clear
3:13 AM 50.0 °F - 48.2 °F 94% 29.97 in 10.0 mi WNW 6.9 mph - N/A   Scattered Clouds
3:32 AM 50.0 °F - 48.2 °F 94% 29.98 in 10.0 mi WNW 6.9 mph - N/A   Clear
3:53 AM 50.0 °F - 48.2 °F 94% 29.98 in 10.0 mi WNW 6.9 mph - N/A   Clear
4:13 AM 50.0 °F - 48.2 °F 94% 29.98 in 10.0 mi NW 5.8 mph - N/A   Clear
4:32 AM 48.2 °F - 48.2 °F 100% 29.98 in 10.0 mi NW 5.8 mph - N/A   Scattered Clouds
4:53 AM 48.2 °F - 48.2 °F 100% 29.99 in 10.0 mi NW 5.8 mph - N/A   Clear
5:13 AM 48.2 °F - 46.4 °F 93% 29.99 in 10.0 mi NW 3.5 mph - N/A   Clear
5:32 AM 46.4 °F 44.3 °F 46.4 °F 100% 29.99 in 10.0 mi NW 4.6 mph - N/A   Clear
5:53 AM 46.4 °F 45.2 °F 44.6 °F 93% 29.99 in 10.0 mi NW 3.5 mph - N/A   Clear
6:13 AM 46.4 °F 45.2 °F 46.4 °F 100% 30.00 in 10.0 mi NW 3.5 mph - N/A   Scattered Clouds
6:33 AM 46.4 °F 45.2 °F 46.4 °F 100% 30.00 in 10.0 mi NW 3.5 mph - N/A   Clear
6:53 AM 46.4 °F 45.2 °F 44.6 °F 93% 30.01 in 10.0 mi NW 3.5 mph - N/A   Scattered Clouds
7:12 AM 46.4 °F - 44.6 °F 93% 30.01 in 10.0 mi Calm Calm - N/A   Clear
7:33 AM 46.4 °F 45.2 °F 44.6 °F 93% 30.01 in 10.0 mi NNW 3.5 mph - N/A   Clear
7:53 AM 46.4 °F 45.2 °F 46.4 °F 100% 30.01 in 10.0 mi NNW 3.5 mph - N/A   Unknown
8:12 AM 48.2 °F - 46.4 °F 93% 30.01 in 10.0 mi Calm Calm - N/A   Unknown
8:33 AM 48.2 °F - 46.4 °F 93% 30.01 in 10.0 mi NNW 4.6 mph - N/A   Clear
8:53 AM 51.8 °F - 46.4 °F 82% 30.01 in 10.0 mi North 6.9 mph - N/A   Clear
9:12 AM 51.8 °F - 46.4 °F 82% 30.01 in 10.0 mi North 6.9 mph - N/A   Clear
9:33 AM 51.8 °F - 46.4 °F 82% 30.02 in 10.0 mi North 5.8 mph - N/A   Clear
9:53 AM 53.6 °F - 46.4 °F 77% 30.02 in 10.0 mi North 5.8 mph - N/A   Clear
10:12 AM 53.6 °F - 46.4 °F 77% 30.02 in 10.0 mi NNW 5.8 mph - N/A   Clear
10:33 AM 53.6 °F - 44.6 °F 72% 30.02 in 10.0 mi North 6.9 mph - N/A   Clear
10:52 AM 55.4 °F - 46.4 °F 72% 30.02 in 10.0 mi North 5.8 mph - N/A   Clear
11:13 AM 55.4 °F - 44.6 °F 67% 30.02 in 10.0 mi NW 5.8 mph - N/A   Clear
11:32 AM 57.2 °F - 44.6 °F 63% 30.01 in 10.0 mi NW 9.2 mph - N/A   Clear
11:53 AM 57.2 °F - 44.6 °F 63% 30.01 in 10.0 mi WNW 5.8 mph - N/A   Clear
12:13 PM 59.0 °F - 44.6 °F 59% 30.01 in 10.0 mi WNW 5.8 mph - N/A   Clear
12:32 PM 59.0 °F - 44.6 °F 59% 30.01 in 10.0 mi West 8.1 mph - N/A   Clear
12:53 PM 60.8 °F - 44.6 °F 55% 30.00 in 10.0 mi WNW 5.8 mph - N/A   Clear
1:13 PM 60.8 °F - 44.6 °F 55% 29.99 in 10.0 mi WNW 4.6 mph - N/A   Clear
1:32 PM 60.8 °F - 44.6 °F 55% 29.99 in 10.0 mi West 5.8 mph - N/A   Clear
1:53 PM 60.8 °F - 44.6 °F 55% 29.98 in 10.0 mi WNW 6.9 mph - N/A   Clear
2:13 PM 62.6 °F - 44.6 °F 52% 29.97 in 10.0 mi West 3.5 mph - N/A   Clear
2:32 PM 62.6 °F - 44.6 °F 52% 29.96 in 10.0 mi West 5.8 mph - N/A   Clear
2:53 PM 62.6 °F - 44.6 °F 52% 29.96 in 10.0 mi WSW 4.6 mph - N/A   Clear
3:13 PM 64.4 °F - 44.6 °F 49% 29.95 in 10.0 mi West 4.6 mph - N/A   Clear
3:32 PM 62.6 °F - 44.6 °F 52% 29.94 in 10.0 mi Calm Calm - N/A   Clear
3:53 PM 64.4 °F - 44.6 °F 49% 29.94 in 10.0 mi WNW 4.6 mph - N/A   Clear
4:13 PM 64.4 °F - 44.6 °F 49% 29.93 in 10.0 mi West 3.5 mph - N/A   Clear
4:32 PM 64.4 °F - 44.6 °F 49% 29.93 in 10.0 mi West 3.5 mph - N/A   Clear
4:53 PM 64.4 °F - 44.6 °F 49% 29.93 in 10.0 mi SW 3.5 mph - N/A   Clear
5:13 PM 64.4 °F - 44.6 °F 49% 29.92 in 10.0 mi West 4.6 mph - N/A   Clear
5:32 PM 64.4 °F - 44.6 °F 49% 29.92 in 10.0 mi Calm Calm - N/A   Clear
5:53 PM 64.4 °F - 46.4 °F 52% 29.92 in 10.0 mi Calm Calm - N/A   Clear
6:12 PM 64.4 °F - 46.4 °F 52% 29.91 in 10.0 mi Calm Calm - N/A   Clear
6:33 PM 62.6 °F - 46.4 °F 55% 29.91 in 10.0 mi Calm Calm - N/A   Clear
6:53 PM 62.6 °F - 46.4 °F 55% 29.91 in 10.0 mi East 3.5 mph - N/A   Clear
7:12 PM 57.2 °F - 48.2 °F 72% 29.91 in 10.0 mi East 3.5 mph - N/A   Clear
7:33 PM 57.2 °F - 48.2 °F 72% 29.91 in 10.0 mi East 3.5 mph - N/A   Clear
7:53 PM 55.4 °F - 48.2 °F 77% 29.92 in 10.0 mi East 4.6 mph - N/A   Clear
8:12 PM 53.6 °F - 48.2 °F 82% 29.92 in 10.0 mi East 4.6 mph - N/A   Unknown
8:33 PM 53.6 °F - 50.0 °F 88% 29.93 in 10.0 mi Calm Calm - N/A   Clear
8:53 PM 53.6 °F - 48.2 °F 82% 29.93 in 10.0 mi East 3.5 mph - N/A   Unknown
9:12 PM 53.6 °F - 48.2 °F 82% 29.93 in 10.0 mi Calm Calm - N/A   Unknown
9:33 PM 53.6 °F - 48.2 °F 82% 29.93 in 10.0 mi East 3.5 mph - N/A   Unknown
9:52 PM 51.8 °F - 48.2 °F 88% 29.93 in 10.0 mi ESE 3.5 mph - N/A   Clear
10:13 PM 51.8 °F - 48.2 °F 88% 29.94 in 10.0 mi Calm Calm - N/A   Unknown
10:33 PM 51.8 °F - 48.2 °F 88% 29.94 in 10.0 mi ESE 3.5 mph - N/A   Scattered Clouds
10:52 PM 48.2 °F - 48.2 °F 100% 29.94 in 10.0 mi ESE 4.6 mph - N/A   Unknown
11:13 PM 48.2 °F - 48.2 °F 100% 29.94 in 10.0 mi East 4.6 mph - N/A   Clear
11:33 PM 51.8 °F - 48.2 °F 88% 29.93 in 10.0 mi East 9.2 mph - N/A   Scattered Clouds
11:52 PM 50.0 °F - 48.2 °F 94% 29.94 in 10.0 mi ESE 4.6 mph - N/A   Scattered Clouds